New River MCAS, NC

2:14 AM EST on January 23, 2018 (GMT -0500)
New River Marine Corps Air Station

Weather History for KNCA - June, 2013

Change the Weather History Date:

Sunday, June 23, 2013

  Actual Average Record
Temperature  
Mean Temperature 76 °F -  
Max Temperature 82 °F 85 °F 99 °F (2010)
Min Temperature 69 °F 67 °F 61 °F (1999)
Cooling Degree Days 10    
Growing Degree Days 26 (Base 50)    
Moisture  
Dew Point 73 °F    
Average Humidity 88    
Maximum Humidity 100    
Minimum Humidity 70    
Precipitation  
Precipitation 0.55 in - - ()
Sea Level Pressure  
Sea Level Pressure 30.21 in    
Wind  
Wind Speed 4 mph (South)    
Max Wind Speed 14 mph    
Max Gust Speed 18 mph    
Visibility 7 miles    
Events Rain , Thunderstorm    
Averages and records for this station are not official NWS values.
T = Trace of Precipitation, MM = Missing Value Source: NWS Daily Summary

Daily Weather History Graph

Daily Weather History Graph

Search for Another Location

Airport or City:

Trip Planner

Search our weather history database for the weather conditions in past years. The results will help you decide how hot, cold, wet, or windy it might be!

Date:

Astronomy

Jun. 23, 2013 Rise Set
Actual Time 5:57 AM EDT 8:26 PM EDT
Civil Twilight 5:27 AM EDT 8:56 PM EDT
Nautical Twilight 4:51 AM EDT 9:32 PM EDT
Astronomical Twilight 4:11 AM EDT 10:12 PM EDT
Moon 8:40 PM EDT 6:09 AM EDT
Length of Visible Light 15h 28m
Length of Day
14h 29m
Full, 100% of the Moon is Illuminated
Jun 23
Full
Jun 30
Last Quarter
Jul 8
New
Jul 15
First Quarter
Jul 22
Full

Hourly Weather History & Observations

Time (EDT) Temp. Heat Index Dew Point Humidity Pressure Visibility Wind Dir Wind Speed Gust Speed Precip Events Conditions
12:56 AM 73.9 °F - 72.0 °F 93% 30.19 in 10.0 mi South 4.6 mph - N/A   Clear
1:56 AM 73.9 °F - 72.0 °F 93% 30.19 in 10.0 mi SSW 3.5 mph - N/A   Clear
2:56 AM 72.0 °F - 71.1 °F 97% 30.19 in 10.0 mi Calm Calm - N/A   Clear
3:56 AM 72.0 °F - 71.1 °F 97% 30.19 in 8.0 mi Calm Calm - N/A   Clear
4:56 AM 71.1 °F - 71.1 °F 100% 30.19 in 7.0 mi Calm Calm - N/A   Partly Cloudy
5:56 AM 70.0 °F - 69.1 °F 97% 30.20 in 3.0 mi Calm Calm - N/A   Partly Cloudy
6:23 AM 69.8 °F - 69.8 °F 100% 30.19 in 1.0 mi Calm Calm - N/A   Mist
6:29 AM 69.8 °F - 69.8 °F 100% 30.19 in 2.5 mi Calm Calm - N/A   Partly Cloudy
6:36 AM 71.6 °F - 69.8 °F 94% 30.19 in 5.0 mi Calm Calm - N/A   Clear
6:56 AM 72.0 °F - 72.0 °F 100% 30.21 in 7.0 mi Calm Calm - N/A   Clear
7:56 AM 75.9 °F - 73.9 °F 94% 30.21 in 10.0 mi South 3.5 mph - N/A   Clear
8:56 AM 80.1 °F 84.2 °F 73.0 °F 79% 30.22 in 10.0 mi South 6.9 mph - N/A   Clear
9:56 AM 82.9 °F 88.8 °F 73.0 °F 72% 30.22 in 10.0 mi South 6.9 mph - N/A   Scattered Clouds
10:21 AM 82.4 °F 87.2 °F 71.6 °F 70% 30.21 in 10.0 mi Variable 4.6 mph - N/A   Scattered Clouds
10:34 AM 82.4 °F 87.2 °F 71.6 °F 70% 30.22 in 10.0 mi Variable 6.9 mph - N/A   Mostly Cloudy
10:54 AM 82.4 °F 88.2 °F 73.4 °F 74% 30.22 in 10.0 mi South 6.9 mph - N/A   Mostly Cloudy
10:56 AM 82.0 °F 87.4 °F 73.0 °F 74% 30.23 in 10.0 mi South 4.6 mph - N/A   Mostly Cloudy
11:22 AM 82.4 °F 88.2 °F 73.4 °F 74% 30.23 in 10.0 mi South 13.8 mph 18.4 mph N/A   Mostly Cloudy
11:29 AM 82.4 °F 88.2 °F 73.4 °F 74% 30.23 in 10.0 mi South 12.7 mph - N/A   Mostly Cloudy
11:56 AM 82.0 °F 87.9 °F 73.9 °F 76% 30.23 in 10.0 mi South 6.9 mph - N/A   Clear
12:56 PM 82.0 °F 87.9 °F 73.9 °F 76% 30.22 in 10.0 mi WSW 8.1 mph - 0.00 in   Mostly Cloudy
1:41 PM 78.8 °F - 73.4 °F 83% 30.21 in 1.8 mi SSW 6.9 mph - 0.05 in Rain Rain
2:04 PM 80.6 °F 86.2 °F 75.2 °F 84% 30.21 in 6.0 mi South 4.6 mph - 0.00 in Rain Light Rain
2:56 PM 82.9 °F 90.2 °F 75.0 °F 77% 30.21 in 10.0 mi SSE 9.2 mph - 0.05 in   Mostly Cloudy
4:22 PM 80.6 °F 85.4 °F 73.4 °F 79% 30.19 in 10.0 mi South 12.7 mph - N/A   Overcast
4:32 PM 78.8 °F - 73.4 °F 83% 30.20 in 8.0 mi South 8.1 mph - 0.00 in Rain , Thunderstorm Light Thunderstorms and Rain
4:56 PM 78.1 °F - 75.0 °F 90% 30.19 in 5.0 mi South 6.9 mph - 0.02 in Rain , Thunderstorm Light Thunderstorms and Rain
5:22 PM 78.8 °F - 73.4 °F 83% 30.19 in 9.0 mi South 6.9 mph - 0.01 in Rain Light Rain
5:56 PM 77.0 °F - 73.9 °F 90% 30.21 in 4.0 mi South 5.8 mph - 0.06 in Rain Rain
6:07 PM 77.0 °F - 73.4 °F 89% 30.22 in 6.0 mi SSW 4.6 mph - 0.01 in Rain Light Rain
6:16 PM 77.0 °F - 73.4 °F 89% 30.22 in 1.5 mi South 8.1 mph - 0.10 in Rain Heavy Rain
6:20 PM 75.2 °F - 73.4 °F 94% 30.21 in 0.8 mi South 8.1 mph - 0.16 in Rain Heavy Rain
6:28 PM 75.2 °F - 73.4 °F 94% 30.21 in 0.8 mi SSW 4.6 mph - 0.25 in Rain Heavy Rain
6:32 PM 75.2 °F - 73.4 °F 94% 30.20 in 1.2 mi SSW 3.5 mph - 0.25 in Rain Light Rain
6:41 PM 75.2 °F - 73.4 °F 94% 30.20 in 2.5 mi Calm Calm - 0.27 in Rain Light Rain
6:56 PM 75.0 °F - 73.0 °F 94% 30.21 in 2.5 mi South 4.6 mph - 0.30 in Rain Rain
7:05 PM 75.2 °F - 73.4 °F 94% 30.19 in 4.0 mi South 6.9 mph - 0.02 in Rain Light Rain
7:56 PM 75.0 °F - 73.9 °F 96% 30.19 in 8.0 mi SSE 4.6 mph - 0.12 in Rain Light Rain
8:56 PM 75.0 °F - 73.0 °F 94% 30.22 in 10.0 mi Calm Calm - 0.00 in   Clear
9:56 PM 73.9 °F - 72.0 °F 93% 30.22 in 10.0 mi South 3.5 mph - N/A   Clear
10:56 PM 73.9 °F - 72.0 °F 93% 30.22 in 10.0 mi South 4.6 mph - N/A   Clear
11:56 PM 73.9 °F - 73.0 °F 97% 30.21 in 10.0 mi South 4.6 mph - N/A   Clear